Change the Weather History Date:

Thursday, December 6, 2012

  Actual Average Record
Temperature  
Mean Temperature 41 °F 38 °F  
Max Temperature 51 °F 45 °F 71 °F (1998)
Min Temperature 30 °F 30 °F 0 °F (2002)
Degree Days  
Heating Degree Days 24 27  
Month to date heating degree days 77 158  
Since 1 July heating degree days 1124 1016  
Cooling Degree Days 0 0  
Month to date cooling degree days 1 0  
Year to date cooling degree days 1708 1387  
Moisture  
Dew Point 37 °F    
Average Humidity 77    
Maximum Humidity 93    
Minimum Humidity 61    
Precipitation  
Precipitation 0.00 in 0.13 in 0.55 in (1975)
Month to date precipitation 0.05 0.74  
Year to date precipitation 28.21 41.23  
Sea Level Pressure  
Sea Level Pressure 30.06 in    
Wind  
Wind Speed 5 mph (SE)    
Max Wind Speed 10 mph    
Max Gust Speed 13 mph    
Visibility 7 miles    
Events      
T = Trace of Precipitation, MM = Missing Value Source: NWS Daily Summary

Daily Weather History Graph

Daily Weather History Graph

Search for Another Location

Airport or City:

Trip Planner

Search our weather history database for the weather conditions in past years. The results will help you decide how hot, cold, wet, or windy it might be!

Date:

Astronomy

Dec. 06, 2012 Rise Set
Actual Time 6:54 AM CST 4:28 PM CST
Civil Twilight 6:25 AM CST 4:58 PM CST
Nautical Twilight 5:51 AM CST 5:31 PM CST
Astronomical Twilight 5:19 AM CST 6:03 PM CST
Moon No Moon Rise 11:50 AM CST (12/6)
Length of Visible Light 10h 33m
Length of Day
9h 33m
Waning Gibbous, 49% of the Moon is Illuminated
Dec 6
Waning Gibbous
Dec 13
New
Dec 19
First Quarter
Dec 28
Full
Jan 4
Last Quarter

Hourly Weather History & Observations

Time (CST) Temp. Windchill Dew Point Humidity Pressure Visibility Wind Dir Wind Speed Gust Speed Precip Events Conditions
12:53 AM 34.0 °F 28.0 °F 28.9 °F 82% 30.20 in 9.0 mi East 6.9 mph - N/A   Clear
1:53 AM 34.0 °F 28.0 °F 28.9 °F 82% 30.20 in 8.0 mi East 6.9 mph - N/A   Clear
2:53 AM 32.0 °F 27.5 °F 28.0 °F 85% 30.20 in 7.0 mi ENE 4.6 mph - N/A   Clear
3:53 AM 30.0 °F 25.2 °F 27.0 °F 88% 30.17 in 7.0 mi NE 4.6 mph - N/A   Clear
4:53 AM 30.0 °F 26.5 °F 26.1 °F 85% 30.17 in 6.0 mi ENE 3.5 mph - N/A   Clear
5:53 AM 32.0 °F 26.4 °F 27.0 °F 82% 30.17 in 7.0 mi East 5.8 mph - N/A   Clear
6:53 AM 32.0 °F 25.6 °F 28.0 °F 85% 30.16 in 5.0 mi East 6.9 mph - N/A   Clear
7:53 AM 34.0 °F 31.0 °F 30.0 °F 85% 30.16 in 5.0 mi NE 3.5 mph - N/A   Clear
8:53 AM 37.9 °F 34.4 °F 32.0 °F 79% 30.15 in 6.0 mi ENE 4.6 mph - N/A   Haze
9:53 AM 42.1 °F 36.6 °F 34.0 °F 73% 30.12 in 7.0 mi ESE 9.2 mph - N/A   Partly Cloudy
10:53 AM 46.0 °F 44.8 °F 35.1 °F 66% 30.10 in 8.0 mi SE 3.5 mph - N/A   Clear
11:53 AM 48.0 °F - 35.1 °F 61% 30.07 in 9.0 mi South 5.8 mph - N/A   Overcast
12:53 PM 48.9 °F - 36.0 °F 61% 30.03 in 9.0 mi South 5.8 mph - N/A   Overcast
1:53 PM 50.0 °F - 37.9 °F 63% 30.02 in 9.0 mi South 4.6 mph - N/A   Overcast
2:53 PM 50.0 °F - 39.0 °F 66% 30.01 in 9.0 mi SE 3.5 mph - N/A   Overcast
3:53 PM 51.1 °F - 39.9 °F 66% 30.00 in 9.0 mi SSE 6.9 mph - N/A   Overcast
4:41 PM 50.0 °F - 41.0 °F 71% 29.99 in 10.0 mi South 5.8 mph - N/A   Overcast
4:53 PM 50.0 °F - 41.0 °F 71% 30.01 in 10.0 mi South 5.8 mph - N/A   Overcast
5:30 PM 48.2 °F - 41.0 °F 76% 30.00 in 9.0 mi Calm Calm - N/A   Overcast
5:53 PM 48.9 °F - 41.0 °F 74% 30.00 in 10.0 mi SSE 4.6 mph - N/A   Overcast
6:53 PM 46.9 °F - 41.0 °F 80% 30.00 in 9.0 mi South 3.5 mph - N/A   Overcast
7:53 PM 48.0 °F - 42.1 °F 80% 30.00 in 8.0 mi South 4.6 mph - N/A   Overcast
8:53 PM 48.0 °F - 43.0 °F 83% 30.00 in 7.0 mi SSE 4.6 mph - N/A   Overcast
9:04 PM 48.2 °F - 42.8 °F 82% 29.99 in 7.0 mi SSE 4.6 mph - N/A   Overcast
9:15 PM 48.2 °F - 42.8 °F 82% 29.99 in 7.0 mi Calm Calm - N/A   Overcast
9:53 PM 48.0 °F - 44.1 °F 86% 29.99 in 6.0 mi SSE 3.5 mph - N/A   Overcast
10:15 PM 48.2 °F - 44.6 °F 87% 29.99 in 5.0 mi South 3.5 mph - N/A   Overcast
10:53 PM 46.9 °F - 44.1 °F 90% 29.98 in 4.0 mi SSE 4.6 mph - N/A   Partly Cloudy
11:53 PM 48.0 °F - 45.0 °F 89% 29.98 in 3.0 mi South 3.5 mph - N/A   Overcast